Weather in Konevo

Russia / Kostroma Oblast     58°05′00″N   45°55′24″E
temp.,
°C
wind,
m/s
gust,
m/s
humid.,
%
clouds,
%
prec.,
mm/h
press.,
hPa
HPBL,
m
17 may, tue
tue1700:00+8ssw119491 0.1 99829
03:00+7sw1196100 0.2 99835
06:00+9nnw1194100 0.7 99899
09:00+10s238763 2.9 999360
12:00+15ene126253 0.9 9991284
15:00+14nne337299 3.8 999840
18:00+10nne51192100 4.2 1001808
21:00+8nne51288100 4.4 1003736
18 may, wed
wed1800:00+7nne41187100 0.1 1003690
03:00+6nne41085100 0.1 1004627
06:00+6n498396 0.0 1005674
09:00+7n5774100 0.0 1005840
12:00+8n3560100 0.0 10061295
15:00+9n4655100 0.1 10061459
18:00+7nnw4660100 0.0 10071213
21:00+4nw2478100 0.0 1008109
19 may, thu
thu1900:00+4wnw268879 0.0 1008363
03:00+2wnw379481 0.0 1008341
06:00+4nw358070 0.0 1008382
09:00+7wnw3464100 0.3 10071320
12:00+6wnw448196 1.5 1008918
15:00+7nw467278 2.6 10091232
18:00+6nnw487475 1.1 1009971
21:00+2wnw2892100 1.4 1010180
20 may, fri
fri2000:000nw269424 0.0 1010134
03:00−1nw289722 0.0 1011178
06:00+2nnw3890100 0.0 1012691
09:00+5nnw5883100 0.3 10131056
12:00+7n5770100 0.8 10141213
15:00+10n5842100 1.1 10132332
18:00+9nnw385143 0.2 10131783
21:00+3nnw387649 0.3 1015180
21 may, sat
sat2100:000nnw28915 0.0 1015172
03:00−1nw399299 0.0 1015277
06:00+2nnw497167 0.0 1015618
09:00+6n5846100 0.0 10131572
12:00+8n5739100 0.0 10131855
15:00+9n5740100 0.0 10132004
18:00+8nne375197 0.0 10131711
21:00+3nnw227010 0.0 101332